Date String (YYYY-MM-DD hh:mm:ss) UTC,Instrument flags,absolute air pressure of the measurement (hPa),sample flow rate (lpm),inlet stack bypass flow (lpm),air temperature of the measurement (°C),ambient temperature measured by the external sensor (°C),aerosol sample conditioner tube jacket temperature (°C),OPC LED temperature (°C),internal box temperature (°C),relative humidity of the measurement (%),span deviation,mass concentration of particles derived from Lorenz-Mie calculation of OPC scattering (μg/m³),mass concentration of particles derived from Lorenz-Mie calculation of OPC scattering (μg/m³),mass concentration of particles derived from Lorenz-Mie calculation of OPC scattering (μg/m³)
DateTimeUTC,F1_M11,P_M11,Q1_M11,Q2_M11,T1_M11,T2_M11,T3_M11,T4_M11,T5_M11,U1_M11,ZSPAN_M11,X0_M11,X2_M11,X1_M11
2024-06-09 14:00:00,SystemResetWarning,0832.9,4.99,000.00,031.0,030.2,000.0,039.4,032.7,031.8,0000.5,0023.11,0015.93,0014.32
2024-06-09 14:01:00,SystemResetWarning,0832.9,5.00,000.00,031.0,030.2,000.0,039.4,032.7,031.8,0000.7,0023.15,0015.97,0014.36
2024-06-09 14:02:00,SystemResetWarning,0833.0,5.01,000.00,031.0,030.2,000.0,039.4,032.7,031.8,0000.7,0023.71,0016.00,0014.38
2024-06-09 14:03:00,SystemResetWarning,0833.0,5.00,000.00,031.0,030.2,000.0,039.4,032.7,031.8,0001.1,0023.58,0015.95,0014.38
2024-06-09 14:04:00,SystemResetWarning,0833.2,5.00,000.00,031.0,030.3,000.0,039.4,032.7,031.9,0001.3,0023.56,0015.95,0014.39
2024-06-09 14:05:00,SystemResetWarning,0833.4,5.00,000.00,031.0,030.3,000.0,039.4,032.7,031.8,0001.2,0023.80,0015.94,0014.38
2024-06-09 14:06:00,SystemResetWarning,0833.0,5.00,000.00,031.0,030.3,000.0,039.5,032.7,032.0,0000.9,0024.28,0015.89,0014.39
2024-06-09 14:07:00,SystemResetWarning,0833.2,5.00,000.00,031.0,030.3,000.0,039.5,032.7,032.0,0000.3,0023.93,0015.85,0014.34
2024-06-09 14:08:00,SystemResetWarning,0833.0,5.00,000.00,031.0,030.3,000.0,039.5,032.7,032.0,-000.1,0024.06,0015.78,0014.29
2024-06-09 14:09:00,SystemResetWarning,0832.9,5.00,000.00,031.0,030.3,000.0,039.5,032.7,032.0,-000.5,0025.15,0015.75,0014.26
2024-06-09 14:10:00,SystemResetWarning,0832.9,5.00,000.00,031.0,030.3,000.0,039.5,032.7,032.1,-000.7,0024.61,0015.73,0014.25
2024-06-09 14:11:00,SystemResetWarning,0833.0,5.00,000.00,031.0,030.3,000.0,039.5,032.7,032.1,-001.0,0023.71,0015.67,0014.21
2024-06-09 14:12:00,SystemResetWarning,0833.0,5.00,000.00,031.0,030.3,000.0,039.5,032.7,032.1,-001.0,0023.47,0015.55,0014.16
2024-06-09 14:13:00,SystemResetWarning,0833.0,5.00,000.00,031.0,030.3,000.0,039.5,032.8,031.8,-001.2,0023.31,0015.50,0014.13
2024-06-09 14:14:00,SystemResetWarning,0832.9,5.00,000.00,031.1,030.3,000.0,039.5,032.7,031.6,-001.3,0023.09,0015.50,0014.12
2024-06-09 14:15:00,SystemResetWarning,0833.0,5.00,000.00,031.1,030.3,000.0,039.5,032.7,031.7,-001.3,0023.36,0015.53,0014.12
2024-06-09 14:16:00,SystemResetWarning,0832.9,5.00,000.00,031.1,030.3,000.0,039.5,032.7,031.8,-001.2,0023.91,0015.56,0014.09
2024-06-09 14:17:00,SystemResetWarning,0832.8,5.00,000.00,031.1,030.3,000.0,039.5,032.8,031.8,-001.0,0024.43,0015.56,0014.08
2024-06-09 14:18:00,SystemResetWarning,0832.9,5.00,000.00,031.1,030.3,000.0,039.5,032.8,031.6,-000.5,0024.82,0015.58,0014.11
2024-06-09 14:19:00,SystemResetWarning,0833.0,5.00,000.00,031.1,030.3,000.0,039.5,032.7,031.6,0000.0,0025.42,0015.60,0014.11
2024-06-09 14:20:00,SystemResetWarning,0833.1,5.00,000.00,031.1,030.3,000.0,039.5,032.8,031.8,0000.2,0024.66,0015.62,0014.10
2024-06-09 14:21:00,SystemResetWarning,0833.1,5.00,000.00,031.1,030.3,000.0,039.5,032.8,031.7,0000.2,0025.11,0015.58,0014.09
2024-06-09 14:22:00,SystemResetWarning,0833.0,5.01,000.00,031.1,030.3,000.0,039.5,032.8,031.7,0000.2,0025.90,0015.55,0014.07
2024-06-09 14:23:00,SystemResetWarning,0833.1,5.00,000.00,031.1,030.3,000.0,039.5,032.8,031.6,0000.0,0026.56,0015.61,0014.08
2024-06-09 14:24:00,SystemResetWarning,0833.1,4.99,000.00,031.1,030.3,000.0,039.5,032.8,031.7,0000.0,0026.74,0015.70,0014.11
2024-06-09 14:25:00,SystemResetWarning,0833.2,4.99,000.00,031.1,030.3,000.0,039.5,032.8,031.9,0000.4,0026.43,0015.66,0014.09
2024-06-09 14:26:00,SystemResetWarning,0833.1,4.99,000.00,031.1,030.4,000.0,039.5,032.8,032.0,0000.4,0026.46,0015.63,0014.08
2024-06-09 14:27:00,SystemResetWarning,0833.0,5.00,000.00,031.1,030.4,000.0,039.5,032.8,031.9,0000.4,0026.21,0015.61,0014.08
2024-06-09 14:28:00,SystemResetWarning,0833.1,5.00,000.00,031.1,030.4,000.0,039.5,032.8,031.8,0000.3,0024.90,0015.61,0014.09
2024-06-09 14:29:00,SystemResetWarning,0833.0,5.02,000.00,031.1,030.4,000.0,039.5,032.8,031.9,0000.0,0025.39,0015.66,0014.06
2024-06-09 14:30:00,SystemResetWarning,0833.0,5.01,000.00,031.1,030.4,000.0,039.5,032.8,031.8,0000.1,0024.78,0015.64,0014.04
2024-06-09 14:31:00,SystemResetWarning,0833.0,5.00,000.00,031.1,030.4,000.0,039.6,032.8,031.8,0000.2,0024.66,0015.58,0014.06
2024-06-09 14:32:00,SystemResetWarning,0833.1,5.00,000.00,031.1,030.4,000.0,039.6,032.8,031.8,0000.6,0023.57,0015.56,0014.05
2024-06-09 14:33:00,SystemResetWarning,0833.3,4.99,000.00,031.1,030.4,000.0,039.6,032.8,031.8,0000.8,0022.90,0015.54,0014.04
2024-06-09 14:34:00,SystemResetWarning,0833.1,5.00,000.00,031.1,030.4,000.0,039.6,032.8,031.8,0000.9,0022.31,0015.44,0013.99
2024-06-09 14:35:00,SystemResetWarning,0833.2,4.99,000.00,031.1,030.4,000.0,039.6,032.8,031.9,0001.3,0022.01,0015.29,0013.92
2024-06-09 14:36:00,SystemResetWarning,0833.1,5.00,000.00,031.2,030.4,000.0,039.6,032.8,032.3,0001.1,0021.98,0015.22,0013.86
2024-06-09 14:37:00,SystemResetWarning,0833.2,5.01,000.00,031.2,030.4,000.0,039.6,032.8,032.0,0001.1,0021.63,0015.13,0013.81
2024-06-09 14:38:00,SystemResetWarning,0833.1,5.01,000.00,031.2,030.4,000.0,039.6,032.8,031.8,0000.7,0021.46,0015.08,0013.78
2024-06-09 14:39:00,SystemResetWarning,0833.1,5.00,000.00,031.2,030.4,000.0,039.6,032.9,031.6,0000.9,0021.83,0015.00,0013.71
2024-06-09 14:40:00,SystemResetWarning,0833.1,4.99,000.00,031.2,030.4,000.0,039.6,032.9,031.4,0000.9,0021.14,0014.91,0013.67
2024-06-09 14:41:00,SystemResetWarning,0833.1,5.00,000.00,031.2,030.4,000.0,039.6,032.9,031.4,0000.8,0020.74,0014.84,0013.65
2024-06-09 14:42:00,SystemResetWarning,0833.1,5.00,000.00,031.2,030.4,000.0,039.6,032.9,031.5,0000.6,0020.61,0014.76,0013.59
2024-06-09 14:43:00,SystemResetWarning,0833.3,5.00,000.00,031.2,030.5,000.0,039.6,032.9,031.3,0000.5,0020.89,0014.71,0013.57
2024-06-09 14:44:00,SystemResetWarning,0833.3,5.00,000.00,031.2,030.5,000.0,039.6,032.9,031.4,0000.8,0021.17,0014.73,0013.57
2024-06-09 14:45:00,SystemResetWarning,0833.4,5.00,000.00,031.2,030.5,000.0,039.6,032.9,031.2,0001.0,0021.23,0014.73,0013.56
2024-06-09 14:46:00,SystemResetWarning,0833.5,5.00,000.00,031.2,030.5,000.0,039.6,032.9,031.2,0000.7,0021.22,0014.74,0013.57
2024-06-09 14:47:00,SystemResetWarning,0833.2,5.00,000.00,031.2,030.5,000.0,039.6,032.9,031.1,0000.6,0021.38,0014.74,0013.59
2024-06-09 14:48:00,SystemResetWarning,0833.2,5.00,000.00,031.2,030.5,000.0,039.6,032.9,031.4,0000.2,0021.45,0014.74,0013.60
2024-06-09 14:49:00,SystemResetWarning,0833.2,5.00,000.00,031.2,030.5,000.0,039.6,032.9,031.4,0000.5,0021.45,0014.76,0013.59
2024-06-09 14:50:00,SystemResetWarning,0833.2,5.00,000.00,031.3,030.5,000.0,039.7,032.9,031.5,0000.4,0021.04,0014.74,0013.60
2024-06-09 14:51:00,SystemResetWarning,0833.2,5.00,000.00,031.3,030.5,000.0,039.7,033.0,031.6,0000.3,0021.42,0014.75,0013.62
2024-06-09 14:52:00,SystemResetWarning,0833.2,5.00,000.00,031.3,030.5,000.0,039.7,032.9,031.7,0000.3,0021.42,0014.78,0013.63
2024-06-09 14:53:00,SystemResetWarning,0833.2,5.00,000.00,031.3,030.5,000.0,039.7,033.0,031.9,-000.0,0021.58,0014.85,0013.64
2024-06-09 14:54:00,SystemResetWarning,0833.2,5.00,000.00,031.3,030.5,000.0,039.7,033.0,031.9,-000.2,0022.00,0014.96,0013.66
2024-06-09 14:55:00,SystemResetWarning,0833.2,5.00,000.00,031.3,030.5,000.0,039.7,033.0,031.8,-000.4,0021.45,0014.98,0013.65
2024-06-09 14:56:00,SystemResetWarning,0833.2,5.00,000.00,031.3,030.5,000.0,039.7,032.9,031.8,-000.5,0021.24,0015.02,0013.68
2024-06-09 14:57:00,SystemResetWarning,0833.2,5.00,000.00,031.3,030.5,000.0,039.7,033.0,031.5,-000.1,0021.18,0015.03,0013.68
2024-06-09 14:58:00,SystemResetWarning,0833.2,4.99,000.00,031.3,030.5,000.0,039.7,033.0,031.7,-000.0,0021.25,0015.09,0013.69
2024-06-09 14:59:00,SystemResetWarning,0833.2,4.99,000.00,031.3,030.6,000.0,039.7,033.0,031.7,0000.5,0022.12,0015.15,0013.69
